Regional Weather Roundup
Issued by NWS

Home | Current Version | Previous Version | Text Only | Print | Product List | Glossary On
Versions: 1 2 3 4 5 6 7 8 9 10 11 12 13 14 15 16 17 18 19 20 21 22 23 24 25 26 27 28 29 30 31 32 33 34 35 36 37 38 39 40 41 42 43 44 45 46 47 48 49 50
000
ASUS44 KLIX 270512
RWRLA
LOUISIANA WEATHER ROUNDUP
NATIONAL WEATHER SERVICE NEW ORLEANS LA
1200 AM CDT MON APR 27 2015

NOTE: "FAIR" INDICATES FEW OR NO CLOUDS BELOW 12,000 FEET WITH NO
      SIGNIFICANT WEATHER AND/OR OBSTRUCTIONS TO VISIBILITY.
      SKY/WX - SKY CONDITION AND SIGNIFICANT WEATHER.
      TMP - AIR TEMPERATURE.    DP   - DEWPOINT TEMPERATURE.
      RH  - RELATIVE HUMIDITY.  PRES - PRESSURE.
      HX  - HEAT INDEX.         WCI  - WIND CHILL INDEX.

*  THESE STATIONS ARE NOT NWS OR FAA STATIONS AND ARE NOT UNDER
   NWS QUALITY CONTROL.

LAZ040-048-061>063-065-066-069-270600-
SOUTHEAST LOUISIANA

CITY           SKY/WX    TMP DP  RH WIND       PRES   REMARKS
N.O. AUDUBON     N/A     76  76 100 MISG        N/A
N.O. INTL ARPT CLOUDY    75  71  87 CALM      29.71F
N.O. LAKEFRONT CLOUDY    79  74  84 E5        29.71F HAZE
SLIDELL        MOCLDY    71  70  96 CALM      29.72F
BATON ROUGE    MOCLDY    71  68  90 E6        29.71F
BOOTHVILLE     CLOUDY    74  73  97 E5        29.73F FOG
BELLE CHASSE   CLOUDY    73  71  93 CALM      29.70F FOG
BOGALUSA*        N/A     69  66  89 CALM      29.75S
GALLIANO*      CLOUDY    75  73  92 CALM      29.72F FOG
NEW ROADS*     FAIR      71  70  96 E3        29.72S FOG
GONZALES*      FAIR      71  71 100 CALM      29.71R
HAMMOND*       CLOUDY    72  68  88 CALM      29.75S
HOUMA*         CLOUDY    73  73  98 E5        29.71S FOG
PORT FOURCHON* CLOUDY    77  75  94 E3        29.74F FOG

$$

LAZ041-044-053-054-270600-
SOUTHWEST LOUISIANA

CITY           SKY/WX    TMP DP  RH WIND       PRES   REMARKS
LAKE CHARLES   CLOUDY    75  73  93 E7        29.66F FOG
LAFAYETTE      CLOUDY    74  72  93 CALM      29.69S FOG
PATTERSON      MOCLDY    73  72  94 SE6       29.70F
SALT POINT       N/A     74  73  97 SE9       29.66F
NEW IBERIA     CLOUDY    76  73  91 NE7       29.70S FOG
CHENAULT AIRPK MOCLDY    73  72  97 E3        29.67F FOG

$$

LAZ027-028-270600-
CENTRAL LOUISIANA

CITY           SKY/WX    TMP DP  RH WIND       PRES   REMARKS
FORT POLK      PTCLDY    72  69  93 E7        29.68F
ALEXANDRIA INT PTCLDY    69  67  93 CALM      29.69S
ALEXANDRIA     PTCLDY    64  64 100 NE3       29.71F FOG

$$

LAZ001-002-270600-
NORTHWEST LOUISIANA

CITY           SKY/WX    TMP DP  RH WIND       PRES   REMARKS
SHREVEPORT     PTCLDY    74  66  76 E9        29.71R
BARKSDALE AFB  MOCLDY    74  65  74 E6        29.72R
DTN SHREVEPORT PTCLDY    74  64  71 E8        29.72R

$$

LAZ014-016-270600-
NORTHEAST LOUISIANA

CITY           SKY/WX    TMP DP  RH WIND       PRES   REMARKS
MONROE         MOCLDY    65  60  84 NE12      29.79R
TALLULAH       MOCLDY    67  62  84 N8        29.78R

$$



USA.gov is the U.S. government's official web portal to all federal, state and local government web resources and services.